Regional Weather Roundup
Issued by NWS

Home | Current Version | Previous Version | Text Only | Print | Product List | Glossary On
Versions: 1 2 3 4 5 6 7 8 9 10 11 12 13 14 15 16 17 18 19 20 21 22 23 24 25 26 27 28 29 30 31 32 33 34 35 36 37 38 39 40 41 42 43 44 45 46 47 48 49 50
460
ASUS43 KLSX 211157
RWRMO

WEATHER SUMMARY FOR MISSOURI
NATIONAL WEATHER SERVICE SPRINGFIELD MO
600 AM CST TUE NOV 21 2017

NOTE: "FAIR" INDICATES FEW OR NO CLOUDS BELOW 12,000 FEET WITH NO
       SIGNIFICANT WEATHER AND/OR OBSTRUCTIONS TO VISIBILITY.
       CURRENT SKY AND/OR WEATHER CONDITIONS ARE NOT AVAILABLE FOR
       CHILLICOTHE AND FARMINGTON.

MOZ001>031-035>038-043-044-053-054-211300-
...NORTHERN AND WESTERN MISSOURI...

CITY           SKY/WX    TMP DP  RH WIND       PRES   REMARKS
KANSAS CTY INT CLOUDY    47  32  56 W7        29.81R
6HR MIN TEMP:  41; 6HR MAX TEMP:  50;

LEE`S SUMMIT   CLOUDY    46  32  58 SW9       29.80R
6HR MIN TEMP:  46; 6HR MAX TEMP:  51;

ST JOSEPH      CLOUDY    39  33  79 N7        29.84R
6HR MIN TEMP:  31; 6HR MAX TEMP:  50;

CHILLICOTHE      N/A     37  31  78 CALM      29.82R
6HR MIN TEMP:  36; 6HR MAX TEMP:  49;


$$
MOZ066>068-077>081-088>096-101>105-211300-
...SOUTHWEST MISSOURI...

CITY           SKY/WX    TMP DP  RH WIND       PRES   REMARKS
SPRINGFIELD    PTCLDY    42  32  67 S12       29.83S
6HR MIN TEMP:  41; 6HR MAX TEMP:  47;


$$
MOZ032>034-039>042-045>050-055>058-069>072-211300-
...CENTRAL MISSOURI...

CITY           SKY/WX    TMP DP  RH WIND       PRES   REMARKS
COLUMBIA       NOT AVBL
JEFFERSON CITY CLOUDY    45  31  58 E3        29.82R
6HR MIN TEMP:  44; 6HR MAX TEMP:  51;

ROLLA          PTCLDY    43  30  60 S16       29.83S
6HR MIN TEMP:  42; 6HR MAX TEMP:  48;

SEDALIA        MOCLDY    48  35  60 SW10      29.81R
6HR MIN TEMP:  48; 6HR MAX TEMP:  53;

WARRENSBURG    CLOUDY    45  32  61 SW7       29.80S

$$
MOZ051-052-059>065-211300-
...EAST CENTRAL MISSOURI...

CITY           SKY/WX    TMP DP  RH WIND       PRES   REMARKS
ST LOUIS INTL  MOCLDY    44  30  57 S5        29.83S
6HR MIN TEMP:  44; 6HR MAX TEMP:  48;


$$
MOZ072>076-082>087-097>100-106>115-211300-
...SOUTH CENTRAL AND SOUTHEAST MISSOURI...

CITY           SKY/WX    TMP DP  RH WIND       PRES   REMARKS
CAPE GIRARDEAU CLEAR     37  29  72 S5        29.97R
6HR MIN TEMP:  36; 6HR MAX TEMP:  42;

POPLAR BLUFF   CLEAR     34  29  82 SE5       29.96S WCI  30
6HR MIN TEMP:  34; 6HR MAX TEMP:  40;

WEST PLAINS    CLEAR     37  28  70 S6        29.90S
6HR MIN TEMP:  36; 6HR MAX TEMP:  45;


$$



USA.gov is the U.S. government's official web portal to all federal, state and local government web resources and services.